| time (UTC) | temp F | wind direction | speed MPH | gust MPH | rain 1hr in | rain 24hr in | rain mn in | humidity % | barometer mb |
| 20260506174905 | 61 | 340 | 1.0 | 7.0 | 0.00 | 0.35 | 0.35 | 43 | 1009.9 |
| 20260506174406 | 61 | 56 | 2.0 | 7.0 | 0.00 | 0.35 | 0.35 | 41 | 1009.7 |
| 20260506174236 | 61 | 53 | 2.0 | 10.0 | 0.00 | 0.35 | 0.35 | 41 | 1009.8 |
| 20260506173906 | 61 | 55 | 2.0 | 12.0 | 0.00 | 0.35 | 0.35 | 40 | 1009.9 |
| 20260506173638 | 62 | 177 | 2.0 | 12.0 | 0.00 | 0.35 | 0.35 | 41 | 1009.9 |
| 20260506173238 | 62 | 234 | 3.0 | 12.0 | 0.00 | 0.35 | 0.35 | 41 | 1010.0 |
| 20260506172906 | 62 | 240 | 4.0 | 14.0 | 0.00 | 0.35 | 0.35 | 40 | 1010.0 |
| 20260506172406 | 63 | 241 | 5.0 | 16.0 | 0.00 | 0.35 | 0.35 | 39 | 1009.8 |
| 20260506172237 | 63 | 227 | 5.0 | 16.0 | 0.00 | 0.35 | 0.35 | 39 | 1009.7 |
| 20260506171907 | 63 | 220 | 6.0 | 17.0 | 0.00 | 0.35 | 0.35 | 38 | 1009.8 |
| 20260506171407 | 63 | 232 | 7.0 | 17.0 | 0.00 | 0.35 | 0.35 | 38 | 1009.8 |
| 20260506171238 | 63 | 236 | 6.0 | 17.0 | 0.00 | 0.35 | 0.35 | 38 | 1009.9 |
| 20260506170907 | 63 | 241 | 6.0 | 17.0 | 0.00 | 0.35 | 0.35 | 39 | 1009.7 |
| 20260506170634 | 63 | 239 | 4.0 | 17.0 | 0.00 | 0.35 | 0.35 | 38 | 1009.6 |
| 20260506170238 | 63 | 245 | 4.0 | 17.0 | 0.00 | 0.35 | 0.35 | 39 | 1009.7 |
| 20260506165907 | 64 | 254 | 3.0 | 17.0 | 0.00 | 0.35 | 0.35 | 39 | 1009.7 |
| 20260506165405 | 64 | 219 | 4.0 | 17.0 | 0.00 | 0.35 | 0.35 | 39 | 1009.7 |
| 20260506165238 | 64 | 131 | 4.0 | 17.0 | 0.00 | 0.35 | 0.35 | 40 | 1009.7 |
| 20260506164906 | 64 | 157 | 6.0 | 17.0 | 0.00 | 0.35 | 0.35 | 40 | 1009.7 |
| 20260506164406 | 65 | 164 | 5.0 | 17.0 | 0.00 | 0.35 | 0.35 | 40 | 1009.4 |
| 20260506164237 | 65 | 180 | 4.0 | 17.0 | 0.00 | 0.35 | 0.35 | 39 | 1009.5 |
| 20260506164142 | 66 | 181 | 3.0 | 16.0 | 0.00 | 0.35 | 0.35 | 42 | 1009.6 |
| 20260506163406 | 66 | 203 | 5.0 | 16.0 | 0.00 | 0.35 | 0.35 | 40 | 1009.5 |
| 20260506163237 | 66 | 200 | 5.0 | 16.0 | 0.00 | 0.35 | 0.35 | 40 | 1009.4 |
| 20260506162906 | 66 | 181 | 4.0 | 16.0 | 0.00 | 0.35 | 0.35 | 40 | 1009.2 |
| 20260506162406 | 65 | 157 | 3.0 | 7.0 | 0.00 | 0.35 | 0.35 | 52 | 1009.2 |
| 20260506162237 | 65 | 169 | 3.0 | 7.0 | 0.00 | 0.35 | 0.35 | 57 | 1009.2 |
| 20260506162136 | 65 | 199 | 3.0 | 7.0 | 0.00 | 0.35 | 0.35 | 56 | 1009.2 |
| 20260506161407 | 65 | 142 | 2.0 | 7.0 | 0.00 | 0.35 | 0.35 | 57 | 1009.0 |
| 20260506161238 | 66 | 66 | 1.0 | 7.0 | 0.00 | 0.35 | 0.35 | 57 | 1009.1 |
| 20260506160907 | 65 | 23 | 2.0 | 8.0 | 0.00 | 0.35 | 0.35 | 58 | 1009.1 |
| 20260506160407 | 65 | 45 | 3.0 | 8.0 | 0.00 | 0.35 | 0.35 | 58 | 1008.9 |
| 20260506160239 | 65 | 69 | 3.0 | 8.0 | 0.00 | 0.35 | 0.35 | 58 | 1008.9 |
| 20260506155907 | 65 | 115 | 3.0 | 8.0 | 0.00 | 0.35 | 0.35 | 57 | 1008.8 |
| 20260506155643 | 65 | 118 | 3.0 | 8.0 | 0.00 | 0.35 | 0.35 | 57 | 1008.9 |
| 20260506155240 | 65 | 106 | 3.0 | 8.0 | 0.00 | 0.35 | 0.35 | 55 | 1008.9 |
| 20260506154907 | 65 | 54 | 3.0 | 8.0 | 0.00 | 0.35 | 0.35 | 57 | 1009.0 |
| 20260506154407 | 65 | 27 | 2.0 | 8.0 | 0.00 | 0.35 | 0.35 | 56 | 1009.1 |
| 20260506154238 | 66 | 48 | 3.0 | 8.0 | 0.00 | 0.35 | 0.35 | 54 | 1009.1 |
| 20260506153906 | 66 | 90 | 3.0 | 8.0 | 0.00 | 0.35 | 0.35 | 43 | 1009.0 |
| 20260506153645 | 65 | 100 | 3.0 | 8.0 | 0.00 | 0.35 | 0.35 | 44 | 1009.0 |
| 20260506153237 | 66 | 90 | 3.0 | 8.0 | 0.00 | 0.35 | 0.35 | 44 | 1009.1 |
| 20260506152905 | 66 | 68 | 2.0 | 7.0 | 0.00 | 0.35 | 0.35 | 46 | 1008.9 |
| 20260506152405 | 65 | 52 | 2.0 | 7.0 | 0.00 | 0.35 | 0.35 | 50 | 1009.2 |
| 20260506152237 | 65 | 59 | 3.0 | 7.0 | 0.00 | 0.35 | 0.35 | 49 | 1009.2 |
| 20260506151909 | 66 | 98 | 2.0 | 7.0 | 0.00 | 0.35 | 0.35 | 54 | 1009.0 |
| 20260506151905 | 67 | 195 | 2.0 | 7.0 | 0.00 | 0.35 | 0.35 | 50 | 1009.3 |
| 20260506151237 | 68 | 210 | 2.0 | 7.0 | 0.00 | 0.35 | 0.35 | 40 | 1009.4 |
| 20260506150904 | 68 | 222 | 2.0 | 7.0 | 0.00 | 0.35 | 0.35 | 36 | 1009.4 |
| 20260506150423 | 67 | 226 | 3.0 | 12.0 | 0.00 | 0.35 | 0.35 | 37 | 1009.3 |
| 20260506150417 | 67 | 226 | 3.0 | 9.0 | 0.00 | 0.35 | 0.35 | 36 | 1009.4 |
| 20260506150402 | 67 | 227 | 3.0 | 9.0 | 0.00 | 0.35 | 0.35 | 36 | 1009.3 |
| 20260506145400 | 67 | 235 | 4.0 | 12.0 | 0.00 | 0.35 | 0.35 | 37 | 1009.2 |
| 20260506145237 | 67 | 231 | 4.0 | 15.0 | 0.00 | 0.35 | 0.35 | 36 | 1009.2 |
| 20260506144901 | 67 | 230 | 4.0 | 15.0 | 0.00 | 0.35 | 0.35 | 36 | 1009.2 |
| 20260506144400 | 67 | 229 | 5.0 | 15.0 | 0.00 | 0.35 | 0.35 | 38 | 1009.2 |
| 20260506144237 | 67 | 228 | 5.0 | 15.0 | 0.00 | 0.35 | 0.35 | 38 | 1009.2 |
| 20260506144137 | 66 | 231 | 6.0 | 16.0 | 0.00 | 0.35 | 0.35 | 37 | 1009.0 |
| 20260506143400 | 65 | 248 | 6.0 | 16.0 | 0.00 | 0.35 | 0.35 | 40 | 1009.1 |
| 20260506143238 | 65 | 253 | 6.0 | 16.0 | 0.00 | 0.35 | 0.35 | 40 | 1009.3 |
| 20260506142858 | 65 | 249 | 6.0 | 25.0 | 0.00 | 0.35 | 0.35 | 40 | 1009.1 |
| 20260506142357 | 64 | 234 | 7.0 | 25.0 | 0.00 | 0.35 | 0.35 | 41 | 1009.0 |
| 20260506142236 | 64 | 232 | 8.0 | 25.0 | 0.00 | 0.35 | 0.35 | 41 | 1009.3 |
| 20260506141855 | 64 | 232 | 9.0 | 25.0 | 0.00 | 0.35 | 0.35 | 39 | 1009.3 |
| 20260506141356 | 65 | 237 | 9.0 | 25.0 | 0.00 | 0.35 | 0.35 | 37 | 1009.5 |
| 20260506141238 | 65 | 233 | 9.0 | 25.0 | 0.00 | 0.35 | 0.35 | 39 | 1009.4 |
| 20260506140855 | 65 | 239 | 7.0 | 14.0 | 0.00 | 0.35 | 0.35 | 40 | 1009.4 |
| 20260506140356 | 65 | 244 | 6.0 | 14.0 | 0.00 | 0.35 | 0.35 | 41 | 1009.5 |
| 20260506140238 | 65 | 251 | 6.0 | 14.0 | 0.00 | 0.35 | 0.35 | 41 | 1009.6 |
| 20260506135855 | 65 | 256 | 5.0 | 12.0 | 0.00 | 0.35 | 0.35 | 42 | 1009.6 |
| 20260506135356 | 66 | 257 | 5.0 | 15.0 | 0.00 | 0.35 | 0.35 | 41 | 1009.6 |
| 20260506135237 | 67 | 259 | 5.0 | 15.0 | 0.00 | 0.35 | 0.35 | 43 | 1009.6 |
| 20260506134855 | 67 | 251 | 6.0 | 15.0 | 0.00 | 0.35 | 0.35 | 40 | 1009.5 |
| 20260506134356 | 67 | 245 | 7.0 | 15.0 | 0.00 | 0.35 | 0.35 | 39 | 1009.5 |
| 20260506134237 | 67 | 241 | 7.0 | 15.0 | 0.00 | 0.35 | 0.35 | 37 | 1009.4 |
| 20260506133857 | 67 | 239 | 7.0 | 15.0 | 0.00 | 0.35 | 0.35 | 37 | 1009.3 |
| 20260506133355 | 68 | 239 | 6.0 | 13.0 | 0.00 | 0.35 | 0.35 | 38 | 1009.1 |
| 20260506133241 | 68 | 242 | 5.0 | 13.0 | 0.00 | 0.35 | 0.35 | 38 | 1009.1 |
| 20260506132855 | 68 | 246 | 6.0 | 13.0 | 0.00 | 0.35 | 0.35 | 38 | 1009.2 |
| 20260506132356 | 68 | 231 | 5.0 | 11.0 | 0.00 | 0.35 | 0.35 | 39 | 1009.3 |
| 20260506132237 | 68 | 228 | 4.0 | 11.0 | 0.00 | 0.35 | 0.35 | 39 | 1009.3 |
| 20260506131855 | 68 | 218 | 3.0 | 11.0 | 0.00 | 0.35 | 0.35 | 40 | 1009.5 |
| 20260506131356 | 67 | 229 | 4.0 | 11.0 | 0.00 | 0.35 | 0.35 | 39 | 1009.5 |
| 20260506131236 | 67 | 227 | 5.0 | 12.0 | 0.00 | 0.35 | 0.35 | 38 | 1009.4 |
| 20260506130855 | 66 | 233 | 6.0 | 12.0 | 0.00 | 0.35 | 0.35 | 43 | 1009.5 |
| 20260506130355 | 67 | 236 | 5.0 | 12.0 | 0.00 | 0.35 | 0.35 | 44 | 1009.7 |
| 20260506130238 | 67 | 238 | 6.0 | 12.0 | 0.00 | 0.35 | 0.35 | 46 | 1009.7 |
| 20260506125855 | 65 | 212 | 5.0 | 12.0 | 0.00 | 0.35 | 0.35 | 46 | 1009.5 |
| 20260506125356 | 65 | 95 | 3.0 | 12.0 | 0.00 | 0.35 | 0.35 | 59 | 1009.7 |
| 20260506125235 | 65 | 80 | 3.0 | 8.0 | 0.00 | 0.35 | 0.35 | 58 | 1009.4 |
| 20260506124855 | 64 | 67 | 2.0 | 8.0 | 0.00 | 0.35 | 0.35 | 64 | 1009.4 |
| 20260506124356 | 63 | 119 | 3.0 | 8.0 | 0.00 | 0.35 | 0.35 | 65 | 1009.4 |
| 20260506124235 | 63 | 130 | 3.0 | 8.0 | 0.00 | 0.35 | 0.35 | 66 | 1009.4 |
| 20260506123856 | 63 | 131 | 4.0 | 8.0 | 0.00 | 0.35 | 0.35 | 65 | 1009.3 |
| 20260506123356 | 63 | 101 | 4.0 | 8.0 | 0.00 | 0.35 | 0.35 | 66 | 1009.2 |
| 20260506123235 | 62 | 35 | 4.0 | 10.0 | 0.00 | 0.35 | 0.35 | 66 | 1009.3 |
| 20260506122855 | 62 | 0 | 3.0 | 10.0 | 0.00 | 0.35 | 0.35 | 66 | 1009.5 |
| 20260506122356 | 62 | 19 | 2.0 | 10.0 | 0.00 | 0.35 | 0.35 | 65 | 1009.1 |
| 20260506122233 | 62 | 23 | 2.0 | 10.0 | 0.00 | 0.35 | 0.35 | 65 | 1009.0 |
| 20260506121856 | 62 | 60 | 3.0 | 10.0 | 0.00 | 0.35 | 0.35 | 65 | 1009.0 |
| 20260506121356 | 62 | 108 | 3.0 | 10.0 | 0.00 | 0.35 | 0.35 | 66 | 1008.8 |
| 20260506121233 | 62 | 127 | 3.0 | 9.0 | 0.00 | 0.35 | 0.35 | 65 | 1008.9 |
| 20260506120856 | 62 | 199 | 3.0 | 9.0 | 0.00 | 0.35 | 0.35 | 66 | 1009.0 |
| 20260506120356 | 62 | 102 | 4.0 | 9.0 | 0.00 | 0.35 | 0.35 | 65 | 1009.1 |
| 20260506120233 | 62 | 98 | 3.0 | 9.0 | 0.00 | 0.35 | 0.35 | 65 | 1008.9 |
| 20260506115856 | 63 | 96 | 3.0 | 15.0 | 0.00 | 0.35 | 0.35 | 64 | 1008.9 |
| 20260506115356 | 63 | 69 | 3.0 | 15.0 | 0.00 | 0.35 | 0.35 | 63 | 1009.0 |
| 20260506115232 | 63 | 54 | 4.0 | 15.0 | 0.00 | 0.35 | 0.35 | 64 | 1009.0 |
| 20260506114855 | 62 | 34 | 6.0 | 15.0 | 0.00 | 0.35 | 0.35 | 64 | 1008.9 |
| 20260506114626 | 62 | 10 | 7.0 | 15.0 | 0.00 | 0.35 | 0.35 | 64 | 1008.6 |
| 20260506114232 | 62 | 14 | 6.0 | 15.0 | 0.00 | 0.35 | 0.35 | 65 | 1008.6 |
| 20260506113855 | 63 | 45 | 5.0 | 15.0 | 0.00 | 0.35 | 0.35 | 65 | 1008.4 |
| 20260506113356 | 63 | 79 | 4.0 | 15.0 | 0.00 | 0.35 | 0.35 | 63 | 1008.6 |
| 20260506113233 | 63 | 89 | 5.0 | 15.0 | 0.00 | 0.35 | 0.35 | 63 | 1008.7 |
| 20260506112857 | 63 | 312 | 4.0 | 15.0 | 0.00 | 0.35 | 0.35 | 63 | 1008.6 |
| 20260506112356 | 63 | 79 | 5.0 | 15.0 | 0.00 | 0.35 | 0.35 | 64 | 1008.3 |
| 20260506112232 | 63 | 81 | 4.0 | 15.0 | 0.00 | 0.35 | 0.35 | 65 | 1008.4 |
| 20260506111856 | 63 | 98 | 4.0 | 8.0 | 0.00 | 0.35 | 0.35 | 63 | 1008.8 |
| 20260506111356 | 64 | 140 | 3.0 | 9.0 | 0.00 | 0.35 | 0.35 | 61 | 1008.8 |
| 20260506111232 | 64 | 112 | 3.0 | 9.0 | 0.00 | 0.35 | 0.35 | 63 | 1008.6 |
| 20260506110856 | 64 | 94 | 3.0 | 9.0 | 0.00 | 0.35 | 0.35 | 64 | 1008.7 |
| 20260506110356 | 63 | 102 | 4.0 | 9.0 | 0.00 | 0.35 | 0.35 | 63 | 1008.6 |
| 20260506110237 | 63 | 127 | 3.0 | 9.0 | 0.00 | 0.35 | 0.35 | 64 | 1008.7 |
| 20260506105909 | 63 | 169 | 2.0 | 4.0 | 0.00 | 0.35 | 0.35 | 61 | 1008.9 |
| 20260506105904 | 64 | 138 | 3.0 | 9.0 | 0.00 | 0.35 | 0.35 | 62 | 1009.0 |
| 20260506105232 | 63 | 176 | 2.0 | 4.0 | 0.00 | 0.35 | 0.35 | 61 | 1008.9 |
| 20260506104856 | 63 | 210 | 1.0 | 4.0 | 0.00 | 0.35 | 0.35 | 62 | 1009.1 |
| 20260506104355 | 63 | 231 | 2.0 | 4.0 | 0.00 | 0.35 | 0.35 | 61 | 1009.1 |
| 20260506104233 | 63 | 231 | 1.0 | 4.0 | 0.00 | 0.35 | 0.35 | 62 | 1009.3 |
| 20260506103856 | 63 | 235 | 2.0 | 4.0 | 0.00 | 0.35 | 0.35 | 62 | 1009.1 |
| 20260506103357 | 62 | 204 | 3.0 | 4.0 | 0.00 | 0.35 | 0.35 | 62 | 1009.1 |
| 20260506103232 | 62 | 191 | 3.0 | 4.0 | 0.00 | 0.35 | 0.35 | 62 | 1009.1 |
| 20260506102856 | 61 | 163 | 4.0 | 4.0 | 0.00 | 0.35 | 0.35 | 66 | 1009.1 |
| 20260506102400 | 61 | 148 | 2.0 | 4.0 | 0.00 | 0.35 | 0.35 | 68 | 1009.3 |
| 20260506102232 | 61 | 164 | 2.0 | 4.0 | 0.00 | 0.35 | 0.35 | 68 | 1009.2 |
| 20260506101856 | 61 | 281 | 2.0 | 4.0 | 0.00 | 0.35 | 0.35 | 68 | 1009.4 |
| 20260506101353 | 60 | 263 | 2.0 | 4.0 | 0.00 | 0.35 | 0.35 | 68 | 1009.2 |
| 20260506101231 | 60 | 261 | 2.0 | 4.0 | 0.00 | 0.35 | 0.35 | 67 | 1009.2 |
| 20260506101126 | 60 | 247 | 2.0 | 7.0 | 0.00 | 0.35 | 0.35 | 69 | 1009.2 |
| 20260506100354 | 60 | 241 | 2.0 | 7.0 | 0.00 | 0.35 | 0.35 | 68 | 1009.2 |
| 20260506100231 | 59 | 247 | 3.0 | 7.0 | 0.00 | 0.35 | 0.35 | 71 | 1009.2 |
| 20260506095852 | 59 | 243 | 3.0 | 7.0 | 0.00 | 0.35 | 0.35 | 70 | 1009.3 |
| 20260506095231 | 59 | 185 | 2.0 | 7.0 | 0.00 | 0.35 | 0.35 | 70 | 1009.5 |
| 20260506094850 | 60 | 113 | 1.0 | 5.0 | 0.00 | 0.35 | 0.35 | 71 | 1009.3 |
| 20260506094349 | 60 | 112 | 0.0 | 4.0 | 0.00 | 0.35 | 0.35 | 70 | 1009.5 |
| 20260506094231 | 60 | 115 | 0.0 | 4.0 | 0.00 | 0.35 | 0.35 | 70 | 1009.5 |
| 20260506093845 | 60 | 97 | 1.0 | 4.0 | 0.00 | 0.36 | 0.35 | 70 | 1009.6 |
| 20260506093618 | 59 | 88 | 2.0 | 4.0 | 0.00 | 0.36 | 0.35 | 72 | 1009.7 |
| 20260506093231 | 59 | 89 | 2.0 | 5.0 | 0.00 | 0.36 | 0.35 | 70 | 1009.8 |
| 20260506092847 | 59 | 168 | 1.0 | 5.0 | 0.00 | 0.36 | 0.35 | 71 | 1009.7 |
| 20260506092346 | 59 | 240 | 2.0 | 5.0 | 0.00 | 0.36 | 0.35 | 72 | 1009.7 |
| 20260506092231 | 58 | 244 | 2.0 | 5.0 | 0.00 | 0.36 | 0.35 | 74 | 1009.8 |
| 20260506091846 | 58 | 245 | 2.0 | 5.0 | 0.00 | 0.36 | 0.35 | 74 | 1009.8 |
| 20260506091346 | 59 | 249 | 2.0 | 5.0 | 0.00 | 0.36 | 0.35 | 72 | 1009.8 |
| 20260506091230 | 58 | 255 | 2.0 | 3.0 | 0.00 | 0.36 | 0.35 | 72 | 1009.9 |
| 20260506090854 | 56 | 271 | 3.0 | 3.0 | 0.00 | 0.36 | 0.35 | 79 | 1009.7 |
| 20260506090847 | 58 | 262 | 2.0 | 3.0 | 0.00 | 0.36 | 0.35 | 75 | 1009.8 |
| 20260506090231 | 56 | 271 | 3.0 | 3.0 | 0.00 | 0.36 | 0.35 | 79 | 1009.7 |
| 20260506090121 | 56 | 270 | 3.0 | 3.0 | 0.00 | 0.36 | 0.35 | 79 | 1009.8 |
| 20260506085346 | 56 | 245 | 2.0 | 4.0 | 0.00 | 0.36 | 0.35 | 79 | 1009.7 |
| 20260506085231 | 56 | 241 | 2.0 | 4.0 | 0.00 | 0.36 | 0.35 | 79 | 1009.7 |
| 20260506084845 | 56 | 232 | 1.0 | 4.0 | 0.00 | 0.36 | 0.35 | 79 | 1009.7 |
| 20260506084619 | 55 | 238 | 1.0 | 4.0 | 0.00 | 0.36 | 0.35 | 81 | 1009.6 |
| 20260506084229 | 55 | 238 | 1.0 | 4.0 | 0.01 | 0.36 | 0.35 | 81 | 1009.6 |
| 20260506083846 | 55 | 234 | 2.0 | 6.0 | 0.01 | 0.36 | 0.35 | 82 | 1009.7 |
| 20260506083346 | 54 | 239 | 2.0 | 6.0 | 0.02 | 0.36 | 0.35 | 84 | 1009.6 |
| 20260506083232 | 54 | 241 | 2.0 | 6.0 | 0.02 | 0.36 | 0.35 | 85 | 1009.8 |
| 20260506082846 | 54 | 245 | 3.0 | 6.0 | 0.02 | 0.36 | 0.35 | 85 | 1009.8 |
| 20260506082345 | 53 | 240 | 3.0 | 6.0 | 0.02 | 0.36 | 0.35 | 86 | 1009.8 |
| 20260506082229 | 53 | 241 | 3.0 | 6.0 | 0.02 | 0.36 | 0.35 | 86 | 1009.7 |
| 20260506081845 | 53 | 243 | 3.0 | 6.0 | 0.02 | 0.36 | 0.35 | 88 | 1009.8 |
| 20260506081346 | 53 | 248 | 3.0 | 6.0 | 0.02 | 0.36 | 0.35 | 88 | 1009.7 |
| 20260506081228 | 53 | 246 | 3.0 | 6.0 | 0.02 | 0.36 | 0.35 | 88 | 1009.7 |
| 20260506080845 | 52 | 241 | 3.0 | 5.0 | 0.02 | 0.36 | 0.35 | 90 | 1009.7 |
| 20260506080353 | 52 | 239 | 2.0 | 5.0 | 0.02 | 0.36 | 0.35 | 89 | 1010.0 |
| 20260506080348 | 52 | 236 | 2.0 | 5.0 | 0.02 | 0.36 | 0.35 | 89 | 1009.8 |
| 20260506080341 | 52 | 237 | 2.0 | 5.0 | 0.02 | 0.36 | 0.35 | 89 | 1009.9 |
| 20260506073348 | 52 | 9 | 0.0 | 2.0 | 0.01 | 0.35 | 0.34 | 89 | 1009.5 |
| 20260506073231 | 52 | 7 | 0.0 | 2.0 | 0.01 | 0.35 | 0.34 | 89 | 1009.5 |
| 20260506072844 | 51 | 357 | 1.0 | 2.0 | 0.01 | 0.35 | 0.34 | 89 | 1009.4 |
| 20260506072344 | 52 | 308 | 0.0 | 2.0 | 0.00 | 0.34 | 0.33 | 89 | 1009.6 |
| 20260506072229 | 52 | 294 | 0.0 | 2.0 | 0.00 | 0.34 | 0.33 | 89 | 1009.6 |
| 20260506072113 | 52 | 268 | 0.0 | 2.0 | 0.00 | 0.34 | 0.33 | 89 | 1009.6 |
| 20260506071401 | 52 | 193 | 0.0 | 3.0 | 0.00 | 0.34 | 0.33 | 89 | 1009.5 |
| 20260506071356 | 52 | 239 | 0.0 | 2.0 | 0.00 | 0.34 | 0.33 | 89 | 1009.6 |
| 20260506071340 | 52 | 227 | 0.0 | 2.0 | 0.00 | 0.34 | 0.33 | 89 | 1009.6 |
| 20260506070342 | 52 | 189 | 0.0 | 3.0 | 0.00 | 0.34 | 0.33 | 90 | 1009.8 |
| 20260506070229 | 52 | 190 | 0.0 | 3.0 | 0.00 | 0.34 | 0.33 | 90 | 1009.7 |
| 20260506062341 | 51 | 136 | 1.0 | 2.0 | 0.02 | 0.34 | 0.33 | 93 | 1009.6 |
| 20260506062228 | 51 | 139 | 1.0 | 2.0 | 0.03 | 0.35 | 0.33 | 92 | 1009.7 |
| 20260506061841 | 50 | 150 | 0.0 | 3.0 | 0.04 | 0.35 | 0.33 | 92 | 1009.7 |
| 20260506061343 | 50 | 134 | 0.0 | 3.0 | 0.06 | 0.35 | 0.33 | 92 | 1009.5 |
| 20260506061231 | 50 | 129 | 0.0 | 3.0 | 0.06 | 0.35 | 0.33 | 93 | 1009.6 |
| 20260506061108 | 50 | 135 | 0.0 | 3.0 | 0.07 | 0.35 | 0.33 | 93 | 1009.6 |
| 20260506060338 | 50 | 142 | 1.0 | 3.0 | 0.09 | 0.35 | 0.33 | 92 | 1009.7 |
| 20260506060227 | 50 | 151 | 1.0 | 3.0 | 0.10 | 0.35 | 0.33 | 93 | 1009.7 |
| 20260506051339 | 50 | 39 | 3.0 | 9.0 | 0.20 | 0.29 | 0.28 | 92 | 1009.6 |
| 20260506051228 | 50 | 32 | 4.0 | 9.0 | 0.20 | 0.29 | 0.28 | 92 | 1009.6 |
| 20260506050837 | 50 | 33 | 4.0 | 9.0 | 0.20 | 0.28 | 0.26 | 93 | 1009.4 |
| 20260506050336 | 50 | 62 | 2.0 | 9.0 | 0.17 | 0.25 | 0.24 | 93 | 1009.4 |
| 20260506050227 | 50 | 80 | 2.0 | 9.0 | 0.17 | 0.24 | 0.24 | 93 | 1009.5 |
| 20260506044835 | 50 | 125 | 2.0 | 6.0 | 0.13 | 0.20 | 0.19 | 93 | 1009.6 |
| 20260506044355 | 51 | 112 | 2.0 | 5.0 | 0.11 | 0.17 | 0.16 | 92 | 1009.5 |
| 20260506044346 | 51 | 123 | 2.0 | 6.0 | 0.13 | 0.19 | 0.17 | 92 | 1009.6 |
| 20260506044332 | 51 | 122 | 2.0 | 5.0 | 0.13 | 0.19 | 0.17 | 92 | 1009.7 |
| 20260506043605 | 51 | 130 | 1.0 | 6.0 | 0.09 | 0.16 | 0.14 | 92 | 1009.6 |
| 20260506043228 | 51 | 120 | 1.0 | 6.0 | 0.09 | 0.16 | 0.13 | 92 | 1009.7 |
| 20260506043112 | 51 | 132 | 1.0 | 6.0 | 0.07 | 0.15 | 0.12 | 92 | 1009.6 |
| 20260506042349 | 51 | 62 | 2.0 | 8.0 | 0.04 | 0.14 | 0.09 | 93 | 1009.7 |
| 20260506042342 | 51 | 68 | 2.0 | 6.0 | 0.06 | 0.15 | 0.10 | 92 | 1009.7 |
| 20260506042328 | 51 | 76 | 2.0 | 6.0 | 0.05 | 0.15 | 0.09 | 93 | 1009.7 |
| 20260506041337 | 51 | 49 | 2.0 | 8.0 | 0.02 | 0.14 | 0.07 | 93 | 1009.7 |
| 20260506041227 | 50 | 42 | 2.0 | 8.0 | 0.02 | 0.14 | 0.07 | 93 | 1009.8 |
| 20260506040836 | 50 | 33 | 3.0 | 8.0 | 0.02 | 0.14 | 0.06 | 93 | 1009.7 |
| 20260506040335 | 50 | 58 | 3.0 | 8.0 | 0.02 | 0.16 | 0.06 | 93 | 1009.8 |
| 20260506040228 | 50 | 61 | 2.0 | 8.0 | 0.02 | 0.15 | 0.06 | 93 | 1009.8 |
| 20260506035837 | 50 | 80 | 2.0 | 6.0 | 0.02 | 0.16 | 0.06 | 93 | 1009.8 |
| 20260506035336 | 50 | 155 | 1.0 | 4.0 | 0.02 | 0.16 | 0.05 | 93 | 1009.8 |
| 20260506035230 | 50 | 150 | 1.0 | 4.0 | 0.02 | 0.16 | 0.05 | 93 | 1009.8 |
| 20260506034836 | 50 | 144 | 1.0 | 4.0 | 0.02 | 0.17 | 0.05 | 93 | 1009.8 |
| 20260506034336 | 50 | 120 | 1.0 | 6.0 | 0.02 | 0.18 | 0.05 | 93 | 1009.9 |
| 20260506034227 | 50 | 125 | 1.0 | 7.0 | 0.02 | 0.18 | 0.05 | 93 | 1009.9 |
| 20260506033836 | 50 | 163 | 1.0 | 7.0 | 0.02 | 0.19 | 0.05 | 93 | 1010.0 |
| 20260506033337 | 50 | 160 | 1.0 | 7.0 | 0.02 | 0.20 | 0.05 | 93 | 1010.0 |
| 20260506033227 | 50 | 157 | 1.0 | 7.0 | 0.02 | 0.20 | 0.05 | 93 | 1010.0 |
| 20260506032837 | 50 | 120 | 2.0 | 7.0 | 0.02 | 0.20 | 0.05 | 93 | 1010.1 |
| 20260506032337 | 50 | 97 | 1.0 | 7.0 | 0.02 | 0.21 | 0.05 | 93 | 1010.0 |
| 20260506032227 | 50 | 100 | 1.0 | 5.0 | 0.02 | 0.21 | 0.05 | 93 | 1010.1 |
| 20260506031837 | 50 | 116 | 0.0 | 5.0 | 0.02 | 0.22 | 0.05 | 93 | 1010.1 |
| 20260506031335 | 50 | 151 | 1.0 | 5.0 | 0.02 | 0.23 | 0.05 | 93 | 1010.4 |
| 20260506031227 | 50 | 132 | 1.0 | 5.0 | 0.02 | 0.23 | 0.05 | 93 | 1010.4 |
| 20260506030835 | 50 | 129 | 2.0 | 5.0 | 0.01 | 0.22 | 0.04 | 93 | 1010.4 |
| 20260506030615 | 50 | 157 | 1.0 | 5.0 | 0.01 | 0.23 | 0.04 | 93 | 1010.5 |
| 20260506030228 | 50 | 170 | 1.0 | 5.0 | 0.01 | 0.24 | 0.04 | 93 | 1010.5 |
| 20260506025836 | 50 | 145 | 1.0 | 4.0 | 0.00 | 0.23 | 0.03 | 93 | 1010.6 |
| 20260506025336 | 50 | 131 | 1.0 | 4.0 | 0.00 | 0.24 | 0.03 | 93 | 1010.7 |
| 20260506025226 | 51 | 135 | 1.0 | 4.0 | 0.00 | 0.24 | 0.03 | 93 | 1010.8 |
| 20260506024835 | 51 | 137 | 1.0 | 4.0 | 0.01 | 0.24 | 0.03 | 93 | 1010.8 |
| 20260506024336 | 51 | 94 | 0.0 | 3.0 | 0.01 | 0.25 | 0.03 | 93 | 1010.8 |
| 20260506024227 | 51 | 59 | 1.0 | 3.0 | 0.01 | 0.25 | 0.03 | 93 | 1010.9 |
| 20260506023837 | 50 | 346 | 1.0 | 4.0 | 0.02 | 0.26 | 0.03 | 93 | 1011.0 |
| 20260506023336 | 51 | 329 | 1.0 | 4.0 | 0.02 | 0.27 | 0.03 | 93 | 1010.9 |
| 20260506023227 | 50 | 327 | 1.0 | 4.0 | 0.02 | 0.28 | 0.03 | 93 | 1011.0 |
| 20260506022836 | 50 | 328 | 1.0 | 4.0 | 0.02 | 0.28 | 0.03 | 93 | 1010.9 |
| 20260506022336 | 51 | 321 | 1.0 | 4.0 | 0.02 | 0.28 | 0.03 | 93 | 1010.9 |
| 20260506022227 | 51 | 322 | 1.0 | 4.0 | 0.02 | 0.29 | 0.03 | 93 | 1011.0 |
| 20260506021836 | 51 | 334 | 1.0 | 3.0 | 0.02 | 0.29 | 0.03 | 93 | 1011.2 |
| 20260506021336 | 51 | 43 | 1.0 | 3.0 | 0.02 | 0.30 | 0.03 | 93 | 1011.2 |
| 20260506021228 | 51 | 75 | 1.0 | 3.0 | 0.02 | 0.30 | 0.03 | 93 | 1011.2 |
| 20260506020836 | 51 | 137 | 0.0 | 4.0 | 0.02 | 0.31 | 0.03 | 93 | 1011.4 |
| 20260506020337 | 51 | 142 | 0.0 | 4.0 | 0.02 | 0.31 | 0.03 | 93 | 1011.4 |
| 20260506020227 | 51 | 140 | 1.0 | 4.0 | 0.02 | 0.31 | 0.03 | 93 | 1011.4 |
| 20260506015832 | 51 | 128 | 1.0 | 4.0 | 0.02 | 0.31 | 0.03 | 93 | 1011.5 |
| 20260506015333 | 51 | 137 | 1.0 | 4.0 | 0.02 | 0.31 | 0.03 | 93 | 1011.6 |
| 20260506015226 | 51 | 133 | 1.0 | 4.0 | 0.02 | 0.31 | 0.03 | 93 | 1011.6 |
| 20260506014833 | 51 | 140 | 0.0 | 3.0 | 0.01 | 0.31 | 0.02 | 93 | 1011.6 |
| 20260506014332 | 51 | 131 | 0.0 | 3.0 | 0.01 | 0.31 | 0.02 | 93 | 1011.5 |
| 20260506014228 | 51 | 133 | 0.0 | 3.0 | 0.01 | 0.31 | 0.02 | 93 | 1011.5 |
| 20260506013831 | 51 | 128 | 1.0 | 3.0 | 0.00 | 0.30 | 0.02 | 93 | 1011.5 |
| 20260506013331 | 51 | 119 | 0.0 | 3.0 | 0.00 | 0.30 | 0.02 | 93 | 1011.5 |
| 20260506013225 | 51 | 119 | 0.0 | 3.0 | 0.00 | 0.30 | 0.02 | 93 | 1011.5 |
| 20260506012833 | 51 | 133 | 0.0 | 3.0 | 0.00 | 0.30 | 0.02 | 93 | 1011.6 |
| 20260506012331 | 51 | 144 | 0.0 | 3.0 | 0.01 | 0.30 | 0.02 | 93 | 1011.6 |
| 20260506012226 | 51 | 152 | 1.0 | 3.0 | 0.01 | 0.30 | 0.02 | 93 | 1011.6 |
| 20260506011831 | 51 | 156 | 0.0 | 3.0 | 0.01 | 0.30 | 0.02 | 93 | 1011.6 |
| 20260506011331 | 51 | 152 | 0.0 | 4.0 | 0.01 | 0.30 | 0.02 | 93 | 1011.8 |
| 20260506011225 | 51 | 144 | 0.0 | 4.0 | 0.01 | 0.30 | 0.02 | 93 | 1011.8 |
| 20260506011103 | 51 | 82 | 0.0 | 4.0 | 0.01 | 0.30 | 0.02 | 93 | 1011.8 |
| 20260506010331 | 51 | 86 | 1.0 | 4.0 | 0.01 | 0.30 | 0.02 | 93 | 1012.0 |
| 20260506010223 | 51 | 100 | 1.0 | 4.0 | 0.01 | 0.30 | 0.02 | 93 | 1012.0 |
| 20260506010104 | 51 | 130 | 1.0 | 4.0 | 0.01 | 0.30 | 0.02 | 93 | 1012.1 |
| 20260506005608 | 51 | 131 | 1.0 | 4.0 | 0.01 | 0.30 | 0.02 | 92 | 1012.3 |
| 20260506005223 | 51 | 136 | 1.0 | 4.0 | 0.01 | 0.30 | 0.02 | 92 | 1012.4 |
| 20260506005103 | 51 | 138 | 1.0 | 4.0 | 0.02 | 0.30 | 0.02 | 92 | 1012.4 |
| 20260506004332 | 51 | 130 | 1.0 | 5.0 | 0.02 | 0.30 | 0.02 | 92 | 1012.5 |
| 20260506004224 | 51 | 129 | 1.0 | 5.0 | 0.02 | 0.30 | 0.02 | 92 | 1012.6 |
| 20260506003830 | 51 | 124 | 1.0 | 5.0 | 0.02 | 0.30 | 0.02 | 92 | 1012.7 |
| 20260506003326 | 51 | 123 | 1.0 | 5.0 | 0.02 | 0.30 | 0.02 | 92 | 1012.9 |
| 20260506003222 | 51 | 119 | 1.0 | 5.0 | 0.02 | 0.30 | 0.02 | 92 | 1012.9 |
| 20260506003058 | 51 | 110 | 1.0 | 5.0 | 0.02 | 0.30 | 0.02 | 92 | 1012.9 |
| 20260506002326 | 51 | 98 | 1.0 | 4.0 | 0.01 | 0.29 | 0.01 | 92 | 1012.9 |
| 20260506002222 | 51 | 91 | 1.0 | 4.0 | 0.01 | 0.29 | 0.01 | 92 | 1013.0 |
| 20260506001826 | 51 | 112 | 1.0 | 4.0 | 0.01 | 0.29 | 0.01 | 92 | 1013.1 |
| 20260506001325 | 51 | 133 | 1.0 | 3.0 | 0.01 | 0.29 | 0.01 | 92 | 1013.1 |
| 20260506001222 | 51 | 138 | 1.0 | 3.0 | 0.01 | 0.29 | 0.01 | 92 | 1013.2 |
| 20260506001059 | 51 | 127 | 0.0 | 2.0 | 0.01 | 0.29 | 0.01 | 92 | 1013.2 |
| 20260506000326 | 51 | 29 | 0.0 | 1.0 | 0.01 | 0.29 | 0.01 | 92 | 1013.1 |
| 20260506000223 | 51 | 16 | 0.0 | 1.0 | 0.01 | 0.29 | 0.01 | 92 | 1013.2 |
| 20260506000058 | 51 | 3 | 0.0 | 1.0 | 0.01 | 0.29 | 0.01 | 92 | 1013.2 |
| 20260505235324 | 51 | 2 | 0.0 | 1.0 | 0.01 | 0.29 | 0.01 | 92 | 1013.3 |
| 20260505235223 | 51 | 2 | 0.0 | 1.0 | 0.01 | 0.29 | 0.01 | 92 | 1013.3 |
| 20260505234822 | 51 | 5 | 0.0 | 1.0 | 0.00 | 0.28 | 0.00 | 92 | 1013.3 |
| 20260505234322 | 51 | 18 | 0.0 | 2.0 | 0.00 | 0.28 | 0.00 | 91 | 1013.3 |
| 20260505234221 | 51 | 21 | 0.0 | 2.0 | 0.00 | 0.28 | 0.00 | 91 | 1013.4 |
| 20260505233821 | 51 | 29 | 0.0 | 2.0 | 0.00 | 0.28 | 0.00 | 91 | 1013.3 |
| 20260505233320 | 51 | 24 | 0.0 | 3.0 | 0.00 | 0.28 | 0.00 | 91 | 1013.4 |
| 20260505233221 | 51 | 21 | 0.0 | 3.0 | 0.00 | 0.28 | 0.00 | 91 | 1013.5 |
| 20260505232818 | 51 | 21 | 0.0 | 3.0 | 0.00 | 0.28 | 0.00 | 91 | 1013.7 |
| 20260505232318 | 51 | 82 | 1.0 | 3.0 | 0.00 | 0.28 | 0.00 | 91 | 1013.7 |
| 20260505232221 | 51 | 98 | 1.0 | 3.0 | 0.00 | 0.28 | 0.00 | 91 | 1013.7 |
| 20260505231819 | 51 | 121 | 1.0 | 3.0 | 0.00 | 0.28 | 0.00 | 91 | 1013.7 |
| 20260505231318 | 51 | 123 | 0.0 | 3.0 | 0.00 | 0.28 | 0.00 | 91 | 1013.7 |
| 20260505231220 | 51 | 122 | 0.0 | 3.0 | 0.00 | 0.28 | 0.00 | 91 | 1013.7 |
| 20260505230817 | 51 | 132 | 1.0 | 3.0 | 0.00 | 0.28 | 0.00 | 91 | 1014.0 |
| 20260505230330 | 51 | 124 | 0.0 | 1.0 | 0.00 | 0.28 | 0.00 | 91 | 1014.0 |
| 20260505230325 | 51 | 134 | 0.0 | 3.0 | 0.00 | 0.28 | 0.00 | 91 | 1013.9 |
| 20260505230317 | 51 | 133 | 0.0 | 2.0 | 0.00 | 0.28 | 0.00 | 91 | 1013.9 |
| 20260505225318 | 51 | 121 | 0.0 | 1.0 | 0.00 | 0.28 | 0.00 | 91 | 1013.9 |
| 20260505225221 | 51 | 124 | 0.0 | 1.0 | 0.00 | 0.28 | 0.00 | 91 | 1013.9 |
| 20260505224817 | 51 | 136 | 0.0 | 1.0 | 0.00 | 0.28 | 0.00 | 91 | 1013.9 |
| 20260505224315 | 51 | 144 | 0.0 | 1.0 | 0.00 | 0.28 | 0.00 | 90 | 1013.9 |
| 20260505224221 | 51 | 144 | 0.0 | 1.0 | 0.00 | 0.28 | 0.00 | 90 | 1013.9 |
| 20260505223816 | 51 | 144 | 0.0 | 0.0 | 0.00 | 0.28 | 0.00 | 90 | 1013.9 |
| 20260505223317 | 51 | 144 | 0.0 | 1.0 | 0.00 | 0.28 | 0.00 | 91 | 1013.8 |
| 20260505223221 | 51 | 144 | 0.0 | 1.0 | 0.00 | 0.28 | 0.00 | 91 | 1013.8 |
| 20260505222832 | 51 | 144 | 0.0 | 1.0 | 0.00 | 0.28 | 0.00 | 91 | 1013.9 |
| 20260505222601 | 51 | 147 | 0.0 | 1.0 | 0.00 | 0.28 | 0.00 | 90 | 1013.9 |
| 20260505222315 | 51 | 148 | 0.0 | 1.0 | 0.00 | 0.28 | 0.00 | 90 | 1013.9 |
| 20260505221316 | 51 | 157 | 0.0 | 1.0 | 0.00 | 0.28 | 0.00 | 90 | 1014.1 |
| 20260505221219 | 51 | 151 | 0.0 | 1.0 | 0.00 | 0.28 | 0.00 | 90 | 1014.1 |
| 20260505220816 | 51 | 121 | 0.0 | 2.0 | 0.00 | 0.28 | 0.00 | 90 | 1014.2 |
| 20260505220314 | 51 | 79 | 0.0 | 3.0 | 0.00 | 0.28 | 0.00 | 90 | 1014.2 |
| 20260505220217 | 51 | 80 | 0.0 | 3.0 | 0.00 | 0.28 | 0.00 | 91 | 1014.2 |
| 20260505215813 | 51 | 101 | 0.0 | 3.0 | 0.00 | 0.28 | 0.28 | 91 | 1014.2 |
| 20260505215312 | 52 | 123 | 1.0 | 3.0 | 0.00 | 0.28 | 0.28 | 91 | 1014.3 |
| 20260505215218 | 52 | 123 | 1.0 | 3.0 | 0.00 | 0.28 | 0.28 | 91 | 1014.3 |
| 20260505215039 | 52 | 84 | 1.0 | 3.0 | 0.00 | 0.28 | 0.28 | 91 | 1014.3 |
| 20260505214311 | 52 | 33 | 0.0 | 2.0 | 0.00 | 0.28 | 0.28 | 91 | 1014.3 |
| 20260505214217 | 52 | 34 | 0.0 | 2.0 | 0.00 | 0.28 | 0.28 | 91 | 1014.3 |
| 20260505213813 | 52 | 87 | 0.0 | 2.0 | 0.00 | 0.29 | 0.28 | 91 | 1014.3 |
| 20260505213311 | 52 | 148 | 0.0 | 2.0 | 0.00 | 0.29 | 0.28 | 91 | 1014.3 |
| 20260505213217 | 52 | 156 | 0.0 | 2.0 | 0.00 | 0.29 | 0.28 | 91 | 1014.3 |
| 20260505213044 | 52 | 180 | 0.0 | 1.0 | 0.00 | 0.29 | 0.28 | 91 | 1014.2 |
| 20260505212310 | 52 | 257 | 0.0 | 1.0 | 0.00 | 0.30 | 0.28 | 91 | 1014.3 |
| 20260505212216 | 52 | 267 | 0.0 | 1.0 | 0.00 | 0.30 | 0.28 | 91 | 1014.3 |
| 20260505211810 | 52 | 284 | 0.0 | 0.0 | 0.00 | 0.30 | 0.28 | 91 | 1014.4 |
| 20260505211309 | 52 | 283 | 0.0 | 0.0 | 0.00 | 0.31 | 0.28 | 91 | 1014.4 |
| 20260505211215 | 52 | 283 | 0.0 | 0.0 | 0.00 | 0.31 | 0.28 | 91 | 1014.4 |
| 20260505210810 | 52 | 282 | 0.0 | 0.0 | 0.00 | 0.31 | 0.28 | 91 | 1014.6 |
| 20260505210310 | 52 | 282 | 0.0 | 0.0 | 0.00 | 0.32 | 0.28 | 91 | 1014.6 |
| 20260505210215 | 52 | 282 | 0.0 | 0.0 | 0.00 | 0.33 | 0.28 | 91 | 1014.6 |
| 20260505205810 | 52 | 282 | 0.0 | 0.0 | 0.00 | 0.33 | 0.28 | 91 | 1014.6 |
| 20260505205309 | 52 | 282 | 0.0 | 0.0 | 0.00 | 0.34 | 0.28 | 91 | 1014.7 |
| 20260505205215 | 52 | 282 | 0.0 | 1.0 | 0.00 | 0.34 | 0.28 | 91 | 1014.7 |
| 20260505205046 | 52 | 282 | 0.0 | 1.0 | 0.00 | 0.35 | 0.28 | 91 | 1014.7 |
| 20260505204310 | 52 | 282 | 0.0 | 1.0 | 0.00 | 0.35 | 0.28 | 91 | 1014.7 |
| 20260505204218 | 52 | 283 | 0.0 | 1.0 | 0.00 | 0.35 | 0.28 | 91 | 1014.7 |
| 20260505203814 | 52 | 318 | 0.0 | 1.0 | 0.00 | 0.35 | 0.28 | 91 | 1014.8 |
| 20260505203308 | 52 | 5 | 0.0 | 1.0 | 0.00 | 0.35 | 0.28 | 90 | 1014.7 |
| 20260505203215 | 52 | 9 | 0.0 | 0.0 | 0.00 | 0.35 | 0.28 | 90 | 1014.7 |
| 20260505202808 | 52 | 9 | 0.0 | 0.0 | 0.00 | 0.35 | 0.28 | 90 | 1014.7 |
| 20260505202308 | 52 | 9 | 0.0 | 0.0 | 0.00 | 0.35 | 0.28 | 90 | 1014.7 |
| 20260505202216 | 52 | 9 | 0.0 | 0.0 | 0.00 | 0.35 | 0.28 | 90 | 1014.7 |
| 20260505201809 | 52 | 9 | 0.0 | 0.0 | 0.00 | 0.35 | 0.28 | 90 | 1014.6 |
| 20260505201308 | 52 | 9 | 0.0 | 0.0 | 0.00 | 0.36 | 0.28 | 90 | 1014.6 |
| 20260505201215 | 52 | 9 | 0.0 | 0.0 | 0.00 | 0.36 | 0.28 | 90 | 1014.6 |
| 20260505200806 | 52 | 9 | 0.0 | 0.0 | 0.00 | 0.37 | 0.28 | 90 | 1014.6 |
| 20260505200306 | 52 | 9 | 0.0 | 0.0 | 0.00 | 0.38 | 0.28 | 90 | 1014.5 |
| 20260505200215 | 52 | 9 | 0.0 | 0.0 | 0.00 | 0.39 | 0.28 | 90 | 1014.5 |
| 20260505195805 | 52 | 9 | 0.0 | 0.0 | 0.00 | 0.40 | 0.28 | 90 | 1014.6 |
| 20260505195306 | 52 | 9 | 0.0 | 1.0 | 0.00 | 0.42 | 0.28 | 89 | 1014.6 |
| 20260505195214 | 52 | 9 | 0.0 | 1.0 | 0.00 | 0.42 | 0.28 | 89 | 1014.6 |
| 20260505194807 | 52 | 9 | 0.0 | 1.0 | 0.00 | 0.43 | 0.28 | 89 | 1014.5 |
| 20260505194307 | 52 | 9 | 0.0 | 1.0 | 0.00 | 0.45 | 0.28 | 89 | 1014.5 |
| 20260505194213 | 52 | 9 | 0.0 | 1.0 | 0.00 | 0.46 | 0.28 | 89 | 1014.5 |
| 20260505193806 | 52 | 8 | 0.0 | 1.0 | 0.00 | 0.46 | 0.28 | 89 | 1014.5 |
| 20260505193306 | 52 | 347 | 0.0 | 1.0 | 0.00 | 0.47 | 0.28 | 89 | 1014.5 |
| 20260505193213 | 52 | 336 | 0.0 | 1.0 | 0.00 | 0.47 | 0.28 | 89 | 1014.4 |
| 20260505192806 | 53 | 289 | 0.0 | 1.0 | 0.00 | 0.48 | 0.28 | 89 | 1014.5 |
| 20260505192539 | 53 | 272 | 0.0 | 0.0 | 0.00 | 0.49 | 0.28 | 88 | 1014.4 |
| 20260505192212 | 53 | 272 | 0.0 | 0.0 | 0.00 | 0.49 | 0.28 | 88 | 1014.4 |
| 20260505191806 | 53 | 272 | 0.0 | 1.0 | 0.00 | 0.50 | 0.28 | 88 | 1014.5 |
| 20260505191308 | 53 | 272 | 0.0 | 1.0 | 0.00 | 0.50 | 0.28 | 88 | 1014.5 |
| 20260505191211 | 53 | 272 | 0.0 | 1.0 | 0.00 | 0.50 | 0.28 | 88 | 1014.5 |
| 20260505190806 | 53 | 277 | 0.0 | 1.0 | 0.00 | 0.50 | 0.28 | 88 | 1014.6 |
| 20260505190306 | 53 | 314 | 0.0 | 2.0 | 0.00 | 0.50 | 0.28 | 88 | 1014.5 |
| 20260505190212 | 53 | 321 | 0.0 | 2.0 | 0.00 | 0.50 | 0.28 | 88 | 1014.5 |
| 20260505185806 | 53 | 335 | 0.0 | 2.0 | 0.00 | 0.50 | 0.28 | 88 | 1014.5 |
| 20260505185305 | 53 | 304 | 0.0 | 2.0 | 0.00 | 0.50 | 0.28 | 88 | 1014.4 |
| 20260505185208 | 53 | 297 | 0.0 | 2.0 | 0.00 | 0.50 | 0.28 | 88 | 1014.3 |
| 20260505184806 | 53 | 154 | 0.0 | 2.0 | 0.00 | 0.50 | 0.28 | 88 | 1014.3 |
| 20260505184306 | 53 | 122 | 0.0 | 1.0 | 0.00 | 0.50 | 0.28 | 88 | 1014.3 |
| 20260505184208 | 53 | 122 | 0.0 | 1.0 | 0.00 | 0.50 | 0.28 | 88 | 1014.3 |
| 20260505183805 | 53 | 120 | 0.0 | 1.0 | 0.00 | 0.50 | 0.28 | 88 | 1014.4 |
| 20260505183307 | 53 | 111 | 0.0 | 1.0 | 0.00 | 0.51 | 0.28 | 88 | 1014.5 |
| 20260505183208 | 53 | 109 | 0.0 | 1.0 | 0.00 | 0.51 | 0.28 | 88 | 1014.4 |
| 20260505182807 | 53 | 100 | 0.0 | 1.0 | 0.00 | 0.52 | 0.28 | 87 | 1014.4 |
| 20260505182307 | 53 | 97 | 0.0 | 1.0 | 0.00 | 0.53 | 0.28 | 87 | 1014.4 |
| 20260505182209 | 53 | 95 | 0.0 | 1.0 | 0.00 | 0.53 | 0.28 | 87 | 1014.4 |
| 20260505181807 | 53 | 89 | 0.0 | 1.0 | 0.00 | 0.54 | 0.28 | 87 | 1014.3 |
| 20260505181307 | 53 | 81 | 0.0 | 1.0 | 0.00 | 0.54 | 0.28 | 88 | 1014.3 |
| 20260505181208 | 53 | 81 | 0.0 | 1.0 | 0.00 | 0.55 | 0.28 | 87 | 1014.3 |
| 20260505180807 | 53 | 120 | 0.0 | 1.0 | 0.00 | 0.56 | 0.28 | 87 | 1014.2 |
| 20260505180306 | 53 | 215 | 0.0 | 1.0 | 0.00 | 0.57 | 0.28 | 87 | 1014.1 |
| 20260505180213 | 53 | 220 | 0.0 | 1.0 | 0.00 | 0.57 | 0.28 | 87 | 1014.2 |
| 20260505180043 | 54 | 220 | 0.0 | 1.0 | 0.00 | 0.58 | 0.28 | 86 | 1014.3 |
| 20260505175541 | 54 | 220 | 0.0 | 2.0 | 0.00 | 0.59 | 0.28 | 86 | 1014.3 |
| 20260505175208 | 54 | 221 | 0.0 | 2.0 | 0.00 | 0.59 | 0.28 | 86 | 1014.3 |